Theta_e
330 329 334 331 332 333 334 331 332 334 337 336 338 339 342 342 341 338 332 325 322 321 322 322 320 317 317 316 315 317 318 320 323 325 326 325 326 327 329 331 335 337 337
330 329 329 330 330 335 333 330 327 325 328 335 334 339 339 339 336 335 329 323 323 328 320 321 321 320 322 322 317 314 314 317 318 321 322 323 324 325 326 326 326 327 327
334 334 332 331 338 338 336 335 328 325 325 326 327 326 340 339 336 337 336 335 333 324 319 318 320 321 322 323 319 318 316 318 319 319 321 324 324 324 325 324 324 323 323
332 334 335 335 334 335 336 336 336 336 336 336 336 336 337 338 337 335 333 331 328 327 324 319 319 321 323 326 331 331 326 324 323 326 330 328 327 327 326 324 320 321 321
324 326 327 326 329 330 330 331 334 335 336 335 336 337 338 338 339 338 336 334 333 330 328 325 326 327 321 333 333 333 334 334 329 329 330 329 329 328 326 323 323 321 322
315 316 316 317 319 322 322 324 325 329 333 331 333 333 334 333 332 333 332 330 330 330 329 328 326 325 326 330 329 328 327 330 331 330 328 327 329 329 326 325 323 322 322
310 311 310 310 311 311 312 315 317 321 327 326 331 330 330 330 331 330 329 328 327 326 326 325 325 325 326 325 325 325 325 325 326 327 327 326 324 326 328 325 323 323 322
305 305 305 306 306 307 308 308 310 312 317 319 320 322 328 328 327 327 327 326 325 325 324 323 323 322 321 321 322 322 322 322 323 323 323 322 324 325 326 325 324 324 323
304 304 305 305 306 306 306 306 307 309 311 314 316 320 327 328 322 324 324 324 323 322 321 319 318 317 316 315 315 315 316 316 316 319 322 320 322 323 323 324 324 323 322
305 305 305 306 307 308 308 308 308 309 309 310 312 322 316 318 323 324 323 322 319 318 317 317 316 315 315 314 314 314 314 313 318 320 321 322 323 323 324 323 322 322 321
305 306 306 307 308 308 308 309 309 310 310 309 311 311 312 316 316 320 321 319 319 319 319 314 312 312 311 312 312 313 315 316 317 318 319 318 320 320 319 318 318 318 318
305 306 307 307 307 308 308 310 311 311 310 310 310 309 310 314 313 314 315 315 316 316 314 313 312 313 310 309 309 311 313 314 315 316 316 313 313 314 314 315 315 316 316
306 306 307 307 307 308 308 309 310 311 313 313 313 312 311 312 313 315 315 313 312 312 311 310 310 311 308 306 305 307 310 308 310 314 313 311 311 311 312 312 312 313 313
306 306 307 307 308 309 307 310 311 312 313 313 313 314 314 314 315 313 313 311 310 307 309 308 310 309 306 304 305 307 306 306 307 307 308 309 310 310 309 310 310 308 308
307 306 306 306 308 308 307 310 311 310 309 309 310 311 311 311 311 312 312 311 310 311 310 308 308 305 304 304 305 306 305 305 308 308 307 307 309 308 308 308 307 305 304
304 305 305 305 306 307 308 309 307 306 306 305 304 305 306 306 306 306 306 307 307 307 307 306 305 304 304 304 304 303 303 303 303 305 306 307 307 308 307 305 303 303 305
304 304 305 306 308 308 308 306 304 304 304 304 303 303 303 304 304 304 304 304 304 304 301 303 304 304 304 304 304 301 301 301 302 303 303 306 306 306 306 305 304 304 305
304 303 303 304 305 305 306 304 304 304 304 305 305 305 305 303 302 303 303 303 302 303 304 302 303 304 304 304 303 302 301 301 301 302 303 304 306 306 306 305 305 305 304
302 299 299 301 303 305 304 304 303 302 302 300 303 305 305 302 302 300 300 303 303 304 303 302 302 303 303 304 303 302 302 301 301 304 304 304 305 306 305 304 304 304 304
304 299 298 299 301 303 304 304 305 304 300 299 300 302 302 302 302 303 302 302 302 303 303 303 302 303 303 303 302 302 302 301 301 302 303 303 304 304 304 304 302 302 304
304 300 299 299 301 303 304 304 305 304 301 300 299 299 299 300 300 303 304 304 304 303 304 303 303 303 303 302 302 302 301 301 300 302 302 303 303 303 303 303 302 301 302
302 300 300 299 299 300 304 305 306 304 305 301 301 301 301 300 299 299 300 302 302 302 302 303 302 301 302 302 301 301 300 300 299 301 301 302 303 303 302 302 302 301 302
306 303 301 297 298 299 301 305 304 303 302 302 302 301 300 299 300 300 300 299 300 301 301 301 301 301 301 301 301 301 300 300 300 300 300 301 301 301 301 298 298 300 302
306 304 300 296 297 298 299 300 299 300 300 299 299 299 300 299 299 300 300 300 299 299 300 300 300 301 300 300 300 300 301 300 300 300 300 300 300 300 298 297 300 301 301
306 305 300 296 296 296 297 298 299 299 299 300 300 301 300 299 298 299 299 299 299 299 299 300 300 299 299 300 299 299 300 299 300 299 300 299 299 298 297 298 299 299 300
305 303 299 297 296 297 297 298 299 299 300 300 300 300 299 297 297 298 299 299 298 299 300 300 299 299 298 298 297 296 298 298 300 298 300 298 298 297 297 298 298 299 298
Wind_Speed
14 10 15 2 12 13 11 9 13 19 21 20 18 18 19 18 18 17 15 14 14 12 13 13 13 12 10 11 12 14 12 10 9 9 9 8 9 9 9 10 10 8 8
12 11 3 7 11 14 7 8 10 7 14 18 24 18 17 16 16 15 16 17 17 18 18 18 17 16 16 17 16 14 12 12 10 10 9 9 10 10 10 9 9 8 9
14 15 15 17 17 14 8 15 14 17 14 15 19 25 21 17 16 18 21 23 24 20 19 20 19 20 23 20 18 16 14 13 12 11 11 10 10 10 10 9 8 8 8
15 13 14 15 13 11 9 8 12 20 24 25 26 25 21 19 20 19 20 21 21 22 22 23 22 21 22 21 18 15 13 13 12 11 9 9 10 10 10 8 7 8 9
15 14 14 16 16 15 15 14 11 7 10 14 15 16 16 20 22 20 23 24 24 23 21 20 22 22 19 15 15 14 13 12 10 10 11 10 11 12 11 8 9 8 8
17 17 17 18 19 18 19 18 16 13 10 14 14 16 16 18 21 22 24 23 20 18 17 14 12 11 9 10 9 8 9 11 12 11 10 12 14 14 13 12 10 10 12
19 19 20 19 18 17 17 18 18 16 10 16 11 14 16 16 12 13 12 8 6 5 4 1 1 2 2 4 3 4 7 9 9 11 12 12 16 22 17 16 15 15 17
20 20 20 20 20 18 17 15 14 14 9 13 7 10 3 5 2 4 4 2 4 4 3 1 1 1 1 2 5 6 8 10 14 16 15 16 22 24 27 22 17 16 16
18 18 18 18 18 18 19 18 14 12 10 11 11 6 3 2 4 4 4 2 1 2 3 2 1 2 2 4 5 7 8 13 12 12 10 14 20 22 25 21 18 15 16
17 17 19 18 18 18 17 15 14 14 12 12 12 7 11 10 3 3 3 3 2 3 2 1 6 8 9 11 14 16 18 18 16 16 14 15 18 19 19 19 16 14 17
17 18 18 18 18 19 19 16 14 13 12 11 11 13 16 9 13 7 5 5 6 8 7 9 5 4 10 11 11 13 14 14 14 13 11 12 11 11 13 14 16 15 19
18 17 17 16 17 18 20 18 13 11 11 10 12 12 12 7 6 5 3 4 1 4 6 4 4 6 9 14 15 15 15 15 12 10 10 7 11 11 14 14 17 18 19
19 19 17 16 17 18 18 17 17 16 17 16 12 13 12 13 17 17 6 2 2 3 3 4 8 9 15 18 20 18 16 16 12 11 12 17 13 15 13 12 12 13 13
15 17 15 14 16 14 18 17 18 18 16 16 18 16 12 10 8 8 3 1 1 1 3 4 7 10 19 18 17 15 15 14 14 15 15 15 15 13 12 10 10 11 12
14 13 12 13 14 13 17 15 15 16 17 18 19 17 15 15 14 13 8 6 1 2 2 3 6 15 18 14 14 15 15 15 14 14 15 15 15 14 11 11 11 11 11
15 15 12 11 11 12 13 14 16 15 16 17 16 15 15 14 13 13 11 9 8 5 2 5 8 10 13 12 12 12 12 13 14 13 14 13 13 13 12 12 13 13 12
17 17 16 15 15 16 15 17 18 19 21 20 20 21 20 17 16 15 13 11 10 8 2 5 9 11 12 12 13 13 15 16 16 15 14 12 12 12 12 13 14 15 15
20 20 19 20 20 18 17 19 19 19 20 19 17 18 17 18 15 13 12 11 10 8 5 4 8 12 14 13 15 15 18 19 20 18 13 12 11 10 12 13 14 17 19
20 21 21 21 20 18 16 16 17 19 20 18 16 13 16 18 17 14 11 10 10 10 8 6 7 12 17 16 20 17 21 23 21 14 10 11 8 9 7 9 16 19 21
19 19 20 19 18 15 10 10 12 16 18 18 16 14 14 16 17 16 12 11 11 14 13 12 9 11 14 16 15 16 23 24 25 12 14 14 8 7 6 8 11 14 14
16 14 18 20 18 18 15 4 7 13 14 16 16 16 15 15 16 16 15 13 13 17 16 12 9 9 14 17 17 15 19 21 23 10 20 15 13 10 9 10 13 16 12
12 13 17 19 19 18 17 6 6 9 12 15 18 18 17 16 15 14 13 9 9 11 13 10 6 10 13 17 15 17 17 7 4 10 19 17 9 9 11 12 14 16 11
7 8 13 17 15 17 17 13 10 10 12 14 16 18 22 18 14 13 12 11 9 8 8 9 11 10 14 18 15 18 17 13 11 17 12 12 6 10 11 19 17 14 12
2 3 10 15 12 15 15 13 12 12 15 16 18 16 16 18 17 14 13 13 12 10 8 8 11 11 13 13 15 15 16 18 16 14 8 4 11 12 22 18 8 5 6
2 2 7 13 15 14 15 16 16 17 17 18 17 19 18 17 20 18 14 13 10 10 10 7 10 10 14 13 14 14 16 15 7 13 4 4 7 12 21 7 5 10 4
7 3 7 10 11 14 16 18 17 16 16 17 18 18 17 18 21 18 17 11 9 11 9 10 12 12 15 18 15 15 14 13 10 5 3 7 5 8 6 5 14 4 9
Wind_Direction
331 302 4 81 36 32 349 312 327 311 310 313 301 293 288 281 266 258 250 235 244 256 258 256 262 260 256 262 255 244 240 235 238 241 240 233 233 236 231 230 232 231 233
7 14 22 350 346 356 306 265 248 256 296 309 304 295 302 293 279 266 265 258 252 272 263 266 265 260 274 273 257 247 246 243 240 243 248 250 249 246 239 234 235 242 248
352 342 333 321 331 329 282 247 255 265 262 255 271 281 294 290 285 276 273 275 272 270 269 267 262 261 274 264 254 247 244 246 246 245 246 243 244 246 248 250 253 261 270
3 9 7 3 1 356 354 263 270 269 273 276 270 270 275 290 294 293 287 283 281 280 276 270 270 277 271 270 257 259 266 271 281 276 252 248 246 247 253 262 275 286 281
20 18 12 4 12 11 11 6 350 340 313 281 288 296 295 293 293 293 291 291 286 282 281 279 280 281 267 254 248 252 256 262 251 255 254 257 248 246 253 265 282 286 288
12 9 7 4 5 4 5 0 2 356 358 345 317 303 295 297 296 292 294 293 290 287 285 278 271 252 245 227 227 243 259 246 247 245 249 258 259 252 253 248 251 261 271
358 354 352 351 355 0 358 358 354 355 352 351 337 323 303 302 299 301 297 295 306 327 323 11 146 164 198 211 235 274 282 287 263 247 245 258 285 266 247 248 268 272 272
357 353 349 347 346 342 340 345 353 351 335 1 354 295 298 309 306 80 75 50 330 297 276 246 155 105 358 321 308 299 313 317 289 266 260 282 277 256 250 256 258 265 264
10 7 8 6 2 356 351 345 342 341 329 329 326 280 321 303 336 297 326 335 146 160 154 138 58 26 357 334 329 317 307 285 280 281 288 277 260 256 252 249 261 263 268
15 12 12 12 12 6 358 349 345 338 326 318 328 236 317 294 276 294 268 325 183 148 141 328 312 320 318 315 303 295 296 292 292 291 277 256 240 245 251 257 260 260 269
16 13 12 10 9 6 3 353 342 336 331 315 312 314 313 298 277 264 280 274 278 245 281 304 321 20 350 348 349 339 331 318 304 278 262 273 249 253 260 270 274 275 275
13 16 15 11 6 5 4 3 360 353 339 318 306 296 287 276 274 277 288 276 275 312 311 339 353 30 18 359 345 334 334 332 313 289 274 266 297 285 283 282 281 278 277
6 7 6 6 7 7 10 10 16 17 14 5 342 312 304 299 300 289 273 4 11 328 327 55 40 10 359 341 332 326 320 315 314 295 282 292 283 283 293 288 284 287 289
3 10 11 13 9 14 14 15 21 24 22 22 29 30 28 22 27 13 7 67 31 304 296 308 346 348 337 339 339 338 333 323 308 299 293 289 282 281 276 271 268 273 276
9 4 8 13 18 20 17 21 34 34 38 41 43 42 45 39 35 32 38 25 16 305 295 2 346 333 338 342 350 341 335 331 322 307 297 291 276 275 265 265 272 278 282
21 18 18 18 18 23 33 45 44 39 37 37 35 36 35 34 38 36 37 38 33 15 319 336 326 330 355 358 3 357 351 339 329 316 307 296 288 273 255 255 267 274 276
41 41 40 46 49 50 51 45 47 47 51 48 46 47 46 40 38 37 39 38 31 13 340 321 316 334 337 344 351 354 352 347 333 318 308 293 288 276 261 261 273 273 266
51 46 43 46 46 43 48 54 47 38 31 25 25 29 28 23 22 23 28 26 16 12 357 303 323 335 342 342 345 341 351 348 342 329 313 300 293 288 270 268 277 278 277
39 38 39 40 41 44 50 50 39 30 24 23 22 22 17 10 8 3 359 353 349 343 334 314 315 327 331 337 340 343 347 348 351 356 9 355 326 293 280 280 283 284 275
26 36 38 38 35 29 33 39 34 26 25 33 36 34 27 21 17 11 0 355 346 336 328 318 316 320 317 331 337 344 343 345 347 348 346 348 324 327 309 287 309 311 295
20 33 33 33 33 29 17 24 23 25 17 27 30 28 24 21 22 23 18 11 6 3 3 356 327 308 325 331 339 334 328 331 342 326 337 338 335 308 304 313 321 327 313
28 33 28 24 28 32 23 32 33 13 1 358 358 359 358 357 359 7 13 3 5 2 360 343 327 322 320 324 325 328 328 321 324 327 331 324 305 300 314 308 312 314 300
1 3 15 11 23 34 37 50 39 13 357 355 354 349 346 353 343 331 332 334 340 334 337 341 330 332 322 332 325 325 322 312 299 319 320 303 302 315 316 320 301 294 278
351 10 18 17 27 31 33 32 22 16 10 2 355 359 2 4 7 344 324 312 311 322 323 324 322 321 332 331 326 318 311 305 300 311 298 276 316 317 329 325 323 302 289
97 81 21 19 31 33 29 22 13 9 4 2 11 19 17 15 11 3 350 335 327 332 324 316 331 329 335 325 336 322 319 320 297 314 257 334 302 325 325 317 354 346 338
78 56 356 9 33 36 28 21 17 10 16 26 28 23 21 21 19 7 358 348 342 342 354 338 324 331 338 329 321 329 319 302 286 294 265 337 311 343 318 319 325 330 3